Location: Zagreb
(45.8000°N, 16.0000°E)
Time: 19:27:18
(UTC+02:00)

A-11 Canister half - Pass Details

Date: 11 August 2022
Orbit: 1524 x 1684 km, 47.3° (Epoch: 05 October)

Event Time Altitude Azimuth Distance (km) Brightness Sun altitude
Rises 14:55:31 0° 287° (WNW) 4,895 11.9 51.1°
Reaches altitude 10° 15:00:59 10° 263° (W) 3,871 11.8 50.4°
Maximum altitude 15:05:03 13° 238° (WSW) 3,578 11.9 49.9°
Drops below altitude 10° 15:09:04 10° 213° (SSW) 3,809 11.9 49.3°
Sets 15:14:25 0° 189° (S) 4,752 12.0 48.6°
